[Iaude] MPEC C48: 2024 CP [a=1.21,e=0.14,i=6.3,H=25.1]

mpec at marsden.cfa.harvard.edu mpec at marsden.cfa.harvard.edu
Mon Feb 5 09:01:26 EST 2024


M.P.E.C. 2024-C48                              Issued 2024 February 5, 13:59 UT

     The Minor Planet Electronic Circulars contain information on unusual
         minor planets, routine data on comets and natural satellites,
         and occasional editorial announcements.  They are published
    on behalf of Division F of the International Astronomical Union by the
          Minor Planet Center, Smithsonian Astrophysical Observatory,
                          Cambridge, MA 02138, U.S.A.
			  
             Prepared using the Tamkin Foundation Computer Network

                              MPC at CFA.HARVARD.EDU
            URL https://www.minorplanetcenter.net/    ISSN 1523-6714

                                    2024 CP                                     


Observations:
     K24C00P 1C2024 01 31.20749 07 08 35.75 +57 09 43.0          21.6 GVEC048G96
     K24C00P 1C2024 01 31.21885 07 08 36.76 +57 08 49.1          21.4 GVEC048G96
     K24C00P 1C2024 01 31.22454 07 08 37.22 +57 08 22.8          21.0 GVEC048G96
     K24C00P* C2024 02 03.36218907 16 10.013+52 51 10.27         21.26wXEC048F52
     K24C00P  C2024 02 03.37444907 16 10.899+52 50 08.24         21.92wXEC048F52
     K24C00P  C2024 02 03.38673107 16 11.812+52 49 05.83         21.76wXEC048F52
     K24C00P 6C2024 02 04.95064 07 19 45.44 +50 35 50.4          21.5 GVEC048Z84
     K24C00P 6C2024 02 04.97359 07 19 47.34 +50 33 51.4          21.6 GVEC048Z84
     K24C00P 6C2024 02 04.99667 07 19 49.27 +50 31 50.0          21.0 GVEC048Z84
     K24C00P KC2024 02 05.25980007 20 26.095+50 09 26.93         20.36GVEC048I52
     K24C00P KC2024 02 05.26721307 20 26.743+50 08 47.83         21.37GVEC048I52
     K24C00P KC2024 02 05.27185807 20 27.096+50 08 23.89         21.35GVEC048I52
     K24C00P KC2024 02 05.27649707 20 27.470+50 07 58.94         21.56GVEC048I52

Observer details:
F52 Pan-STARRS 2, Haleakala.  Observers J. Herman, T. Lowe, P. Minguez, A.
    Schultz, I. Smith.  Measurers K. Chambers, T. de Boer, J. Fairlamb, H.
    Gao, M. Huber, C.-C. Lin, E. Magnier, Y. Ramanjooloo, R. Wainscoat, R.
    Weryk.  1.8-m Ritchey-Chretien + CCD.
G96 Mt. Lemmon Survey.  Observer J. K. Hogan.  Measurers B. Gray, D. Rankin,
    F. C. Shelly.  1.5-m reflector + 10K CCD.
I52 Steward Observatory, Mt. Lemmon Station.  Observer H. Groeller.  Measurers
    E. C. Beshore, D. Fay, J. B. Fazekas, D. C. Fuls, A. R. Gibbs, A. D.
    Grauer, H. Groeller, J. K. Hogan, R. A. Kowalski, S. M. Larson, G. J.
    Leonard, D. Rankin, R. L. Seaman, F. C. Shelly, K. W. Wierzchos.  1.0-m
    prime focus + CCD.
Z84 Calar Alto-Schmidt.  Observers M. Micheli, R. Kresken.  Measurers R.
    Kresken, M. Micheli, F. Ocana, L. Conversi.  0.8-m f/3 Schmidt + CCD.

Orbital elements:
2024 CP                                                  Earth MOID = 0.0797 AU
Epoch 2023 Sept. 13.0 TT = JDT 2460200.5                MPC                     
M 270.80263              (2000.0)            P               Q                  
n   0.74127935     Peri.  134.43485     -0.32528762     -0.94441964             
a   1.2091535      Node   334.43458     +0.83329247     -0.26252433             
e   0.1359333      Incl.    6.32398     +0.44700294     -0.19786997             
P   1.33           H   25.14          G   0.15           U   8                  
Residuals in seconds of arc
240131 G96  0.0   0.1+    240203 F52  0.1+  0.1+    240205 I52  0.1+  0.1-
240131 G96  0.1+  0.4-    240204 Z84  0.3+  0.1-    240205 I52  0.0   0.3+
240131 G96  0.3-  0.2+    240204 Z84  0.3+  0.2+    240205 I52  0.0   0.4-
240203 F52  0.6+  0.2+    240204 Z84  0.1+  0.1-
240203 F52  0.2+  0.1+    240205 I52  0.4-  0.4+

Ephemeris:
2024 CP                  a,e,i = 1.21, 0.14, 6                   q = 1.0448
Date    TT    R. A. (2000) Decl.     Delta      r    Elong.  Phase     V
2024 01 06    05 28 07.3 +79 07 32   0.1079  1.0452   122.5    52.5    22.3
...
2024 01 21    06 38 01.7 +69 00 09   0.09466 1.0464   129.2    46.8    21.9
...
2024 01 29    07 02 48.6 +60 00 56   0.09057 1.0503   134.5    42.0    21.7
...
2024 02 04    07 17 37.3 +51 56 32   0.08998 1.0547   138.5    38.3    21.6
2024 02 05    07 19 52.5 +50 31 18   0.09014 1.0556   139.1    37.7    21.5
2024 02 06    07 22 04.8 +49 05 16   0.09038 1.0565   139.6    37.2    21.5
...
2024 02 12    07 34 34.7 +40 22 40   0.09361 1.0625   142.2    34.7    21.6
...
2024 02 20    07 50 12.4 +29 21 33   0.1028  1.0722   142.8    33.9    21.8
...
2024 03 06    08 18 18.0 +13 31 02   0.1339  1.0950   137.8    37.5    22.5

A. U. Tomatic                (C) Copyright 2024 MPC           M.P.E.C. 2024-C48





More information about the Iaude mailing list